Riverside, CA

5:16 AM PDT on October 21, 2017 (GMT -0700)
Riverside Municipal

Weather History for KRAL - January, 2014

Change the Weather History Date:

Friday, January 10, 2014

  Actual Average Record
Temperature  
Mean Temperature 57 °F 55 °F  
Max Temperature 74 °F 67 °F 89 °F (1923)
Min Temperature 40 °F 43 °F 23 °F (1949)
Degree Days  
Heating Degree Days 8 10  
Month to date heating degree days 69 104  
Since 1 July heating degree days 457 630  
Cooling Degree Days 0 0  
Month to date cooling degree days 1 0  
Year to date cooling degree days 1 0  
Growing Degree Days 8 (Base 50)    
Moisture  
Dew Point 41 °F    
Average Humidity 61    
Maximum Humidity 96    
Minimum Humidity 26    
Precipitation  
Precipitation 0.00 in 0.11 in 1.60 in (1995)
Month to date precipitation 0.00 1.17  
Year to date precipitation 0.00 1.17  
Since 1 July precipitation 1.15  
Snow  
Snow 0.00 in - - ()
Month to date snowfall 0.0  
Year to date snowfall 0.0  
Snow Depth 0.00 in    
Sea Level Pressure  
Sea Level Pressure 30.05 in    
Wind  
Wind Speed 3 mph (NE)    
Max Wind Speed 8 mph    
Max Gust Speed 13 mph    
Visibility 6 miles    
Events      
T = Trace of Precipitation, MM = Missing Value Source: NWS Daily Summary

Daily Weather History Graph

Daily Weather History Graph

Search for Another Location

Airport or City:

Trip Planner

Search our weather history database for the weather conditions in past years. The results will help you decide how hot, cold, wet, or windy it might be!

Date:

Astronomy

Jan. 10, 2014 Rise Set
Actual Time 6:55 AM PST 4:59 PM PST
Civil Twilight 6:28 AM PST 5:26 PM PST
Nautical Twilight 5:57 AM PST 5:57 PM PST
Astronomical Twilight 5:27 AM PST 6:27 PM PST
Moon 1:02 PM PST (1/10) 2:11 AM PST (1/10)
Length of Visible Light 10h 58m
Length of Day
10h 03m
Waxing Gibbous, 76% of the Moon is Illuminated
Jan 10
Waxing Gibbous
Jan 15
Full
Jan 23
Last Quarter
Jan 30
New
Feb 6
First Quarter

Hourly Weather History & Observations

Time (PST) Temp. Windchill Dew Point Humidity Pressure Visibility Wind Dir Wind Speed Gust Speed Precip Events Conditions
12:53 AM 46.0 °F - 43.0 °F 89% 30.03 in 4.0 mi Calm Calm - N/A   Clear
1:53 AM 44.1 °F 41.5 °F 41.0 °F 89% 30.04 in 3.0 mi ENE 4.6 mph - N/A   Clear
2:53 AM 43.0 °F - 41.0 °F 93% 30.04 in 3.0 mi Calm Calm - N/A   Clear
3:53 AM 44.1 °F 42.5 °F 39.9 °F 85% 30.05 in 4.0 mi North 3.5 mph - N/A   Clear
4:53 AM 44.1 °F 42.5 °F 39.9 °F 85% 30.04 in 4.0 mi ENE 3.5 mph - N/A   Clear
5:53 AM 44.1 °F 40.8 °F 39.9 °F 85% 30.05 in 4.0 mi NE 5.8 mph - N/A   Clear
6:53 AM 44.1 °F - 39.0 °F 82% 30.06 in 3.0 mi Calm Calm - N/A   Haze
7:53 AM 46.9 °F - 39.9 °F 77% 30.08 in 4.0 mi Variable 4.6 mph - N/A   Haze
8:53 AM 48.9 °F - 41.0 °F 74% 30.11 in 3.0 mi Calm Calm - N/A   Haze
9:53 AM 57.0 °F - 41.0 °F 55% 30.11 in 5.0 mi Variable 3.5 mph - N/A   Haze
10:53 AM 64.0 °F - 37.0 °F 37% 30.08 in 7.0 mi ENE 3.5 mph - N/A   Clear
11:53 AM 68.0 °F - 37.0 °F 32% 30.04 in 8.0 mi West 5.8 mph - N/A   Clear
12:53 PM 70.0 °F - 34.0 °F 27% 30.02 in 7.0 mi WNW 5.8 mph - N/A   Clear
1:53 PM 72.0 °F - 39.0 °F 30% 30.00 in 7.0 mi Calm Calm - N/A   Clear
2:53 PM 73.0 °F - 39.9 °F 30% 30.00 in 7.0 mi Calm Calm - N/A   Clear
3:53 PM 73.0 °F - 43.0 °F 34% 30.01 in 7.0 mi WNW 4.6 mph - N/A   Clear
4:53 PM 66.9 °F - 45.0 °F 45% 30.02 in 6.0 mi West 3.5 mph - N/A   Haze
5:53 PM 64.0 °F - 45.0 °F 50% 30.03 in 7.0 mi Calm Calm - N/A   Clear
6:53 PM 61.0 °F - 45.0 °F 56% 30.05 in 7.0 mi Calm Calm - N/A   Clear
7:53 PM 57.9 °F - 45.0 °F 62% 30.07 in 7.0 mi ESE 3.5 mph - N/A   Clear
8:53 PM 55.0 °F - 45.0 °F 69% 30.09 in 6.0 mi Calm Calm - N/A   Haze
9:53 PM 55.9 °F - 44.1 °F 64% 30.09 in 6.0 mi ENE 3.5 mph - N/A   Haze
10:53 PM 52.0 °F - 43.0 °F 71% 30.09 in 6.0 mi ENE 4.6 mph - N/A   Haze
11:53 PM 52.0 °F - 39.9 °F 63% 30.09 in 7.0 mi ENE 4.6 mph - N/A   Clear